Location: Eastchurch
(51.4000°N, 0.8667°E)
Time: 14:48:39
(UTC+00:00)

Cosmos 1733 Rocket - Visible Passes

Search period start: 11 April 2026 00:00
Search period end: 21 April 2026 00:00
Orbit: 597 x 619 km, 82.5° (Epoch: 11 April)

Date Brightness Start Highest point End Pass type
(mag) Time Alt. Az. Time Alt. Az. Time Alt. Az.
11 Apr 4.2 20:18:20 22° ESE 20:19:27 24° E 20:22:58 10° NNE visible
11 Apr 4.1 21:55:13 29° WSW 21:56:52 41° WNW 22:01:03 10° N visible
12 Apr 3.6 20:31:29 26° SE 20:33:12 38° E 20:37:15 10° NNE visible
12 Apr 4.9 22:08:22 16° WSW 22:10:57 27° WNW 22:14:43 10° N visible
13 Apr 3.0 20:44:32 24° S 20:47:02 61° E 20:51:22 10° NNE visible
13 Apr 5.6 22:22:03 10° WSW 22:25:06 18° WNW 22:28:11 10° NNW visible
14 Apr 3.0 20:57:29 16° SSW 21:00:55 84° WNW 21:05:20 10° N visible
14 Apr 5.9 22:37:29 10° W 22:39:20 12° WNW 22:41:13 10° NNW visible
15 Apr 4.5 19:34:30 10° SE 19:37:37 20° E 19:40:47 10° NE visible
15 Apr 3.8 21:10:38 10° SSW 21:14:53 52° WNW 21:19:12 10° N visible
16 Apr 3.9 19:47:33 10° SSE 19:51:21 30° E 19:55:11 10° NNE visible
16 Apr 4.7 21:24:57 10° SW 21:28:55 33° WNW 21:32:57 10° N visible
17 Apr 3.3 20:00:58 10° SSE 20:05:08 47° E 20:09:22 10° NNE visible
17 Apr 5.4 21:39:35 10° WSW 21:43:03 22° WNW 21:46:32 10° NNW visible
18 Apr 3.0 20:14:38 10° S 20:18:59 77° E 20:23:24 10° NNE visible
18 Apr 5.9 21:54:37 10° W 21:57:15 15° WNW 21:59:52 10° NNW visible
19 Apr 3.4 20:28:35 10° SSW 20:32:55 67° WNW 20:37:20 10° N visible
19 Apr 6.4 22:10:55 10° WNW 22:11:30 10° WNW 22:12:06 10° NW visible
20 Apr 4.3 20:42:46 10° SW 20:46:55 42° WNW 20:51:08 10° N visible
